Pittsfield, MA

2:29 AM EST on February 08, 2016 (GMT -0500)
Pittsfield Municipal

Weather History for KPSF - June, 2013

Change the Weather History Date:

Sunday, June 30, 2013

  Actual Average Record
Temperature  
Mean Temperature 72 °F 66 °F  
Max Temperature 81 °F 77 °F 100 °F (1933)
Min Temperature 62 °F 56 °F 42 °F (1956)
Degree Days  
Heating Degree Days 0 1  
Month to date heating degree days 108 100  
Since 1 June heating degree days 108 101  
Since 1 July heating degree days 7037 7461  
Cooling Degree Days 7 3  
Month to date cooling degree days 86 56  
Year to date cooling degree days 111 69  
Since 1 June cooling degree days 86 56  
Growing Degree Days 22 (Base 50)    
Moisture  
Dew Point 65 °F    
Average Humidity 79    
Maximum Humidity 100    
Minimum Humidity 58    
Precipitation  
Precipitation 0.19 in 0.11 in 0.70 in (1937)
Month to date precipitation 7.37 4.40  
Year to date precipitation 21.96 21.44  
Sea Level Pressure  
Sea Level Pressure 29.81 in    
Wind  
Wind Speed 4 mph (SSW)    
Max Wind Speed 23 mph    
Max Gust Speed 29 mph    
Visibility 4 miles    
Events Fog , Rain , Thunderstorm    
T = Trace of Precipitation, MM = Missing Value Source: NWS Daily Summary

Daily Weather History Graph

Daily Weather History Graph

Search for Another Location

Airport or City:

Trip Planner

Search our weather history database for the weather conditions in past years. The results will help you decide how hot, cold, wet, or windy it might be!

Date:

Astronomy

Jun. 30, 2013 Rise Set
Actual Time 5:19 AM EDT 8:34 PM EDT
Civil Twilight 4:44 AM EDT 9:08 PM EDT
Nautical Twilight 4:00 AM EDT 9:53 PM EDT
Astronomical Twilight 3:05 AM EDT 10:47 PM EDT
Moon 12:22 AM EDT (6/30) 1:40 PM EDT (6/30)
Length of Visible Light 16h 23m
Length of Day
15h 14m
Last Quarter, 45% of the Moon is Illuminated
Jun 30
Last Quarter
Jul 8
New
Jul 15
First Quarter
Jul 22
Full
Jul 29
Last Quarter

Hourly Weather History & Observations

Time (EDT) Temp. Heat Index Dew Point Humidity Pressure Visibility Wind Dir Wind Speed Gust Speed Precip Events Conditions
12:54 AM 66.9 °F - 64.0 °F 90% 29.66 in 7.0 mi West 4.6 mph - N/A   Scattered Clouds
1:54 AM 66.9 °F - 64.9 °F 93% 29.66 in 6.0 mi West 3.5 mph - N/A   Mostly Cloudy
2:54 AM 64.9 °F - 64.0 °F 97% 29.68 in 3.0 mi Calm Calm - N/A   Clear
3:02 AM 64.4 °F - 62.6 °F 94% 29.75 in 2.5 mi Calm Calm - N/A   Clear
3:09 AM 64.4 °F - 62.6 °F 94% 29.75 in 4.0 mi Calm Calm - N/A   Clear
3:22 AM 64.4 °F - 62.6 °F 94% 29.76 in 1.5 mi Calm Calm - N/A   Clear
3:31 AM 62.6 °F - 62.6 °F 100% 29.76 in 0.8 mi Calm Calm - N/A   Clear
3:37 AM 62.6 °F - 62.6 °F 100% 29.76 in 2.0 mi Calm Calm - N/A   Clear
3:46 AM 64.4 °F - 62.6 °F 94% 29.76 in 4.0 mi Calm Calm - N/A   Clear
3:54 AM 64.0 °F - 62.1 °F 93% 29.68 in 3.0 mi Calm Calm - N/A   Clear
3:56 AM 64.4 °F - 62.6 °F 94% 29.75 in 1.5 mi Calm Calm - N/A   Partly Cloudy
3:58 AM 64.4 °F - 62.6 °F 94% 29.75 in 0.8 mi Calm Calm - N/A   Mist
4:06 AM 62.6 °F - 62.6 °F 100% 29.76 in 0.2 mi Calm Calm - N/A Fog Fog
4:21 AM 62.6 °F - 62.6 °F 100% 29.76 in 1.0 mi Calm Calm - N/A   Mist
4:30 AM 64.4 °F - 62.6 °F 94% 29.77 in 2.0 mi Calm Calm - N/A   Mostly Cloudy
4:33 AM 62.6 °F - 62.6 °F 100% 29.76 in 0.8 mi Calm Calm - N/A   Mist
4:42 AM 62.6 °F - 62.6 °F 100% 29.77 in 0.2 mi Calm Calm - N/A Fog Fog
4:54 AM 63.0 °F - 62.1 °F 97% 29.69 in 0.2 mi Calm Calm - N/A Fog Fog
5:04 AM 62.6 °F - 62.6 °F 100% 29.77 in 0.2 mi Calm Calm - N/A Fog Fog
5:14 AM 64.4 °F - 62.6 °F 94% 29.78 in 0.2 mi Calm Calm - N/A Fog Fog
5:35 AM 64.4 °F - 64.4 °F 100% 29.79 in 0.2 mi Calm Calm - N/A Fog Fog
5:54 AM 64.9 °F - 64.0 °F 97% 29.72 in 0.2 mi Calm Calm - N/A Fog Fog
6:39 AM 64.4 °F - 64.4 °F 100% 29.81 in 0.2 mi Calm Calm - N/A Fog Fog
6:54 AM 64.0 °F - 64.0 °F 100% 29.74 in 0.2 mi Calm Calm - N/A Fog Fog
7:54 AM 64.9 °F - 64.9 °F 100% 29.76 in 0.2 mi Calm Calm - N/A Fog Fog
8:03 AM 66.2 °F - 64.4 °F 94% 29.84 in 1.0 mi Calm Calm - N/A   Overcast
8:24 AM 66.2 °F - 64.4 °F 94% 29.84 in 2.0 mi Calm Calm - N/A   Overcast
8:35 AM 66.2 °F - 66.2 °F 100% 29.85 in 4.0 mi West 4.6 mph - N/A   Mostly Cloudy
8:42 AM 66.2 °F - 66.2 °F 100% 29.85 in 5.0 mi West 3.5 mph - N/A   Scattered Clouds
8:54 AM 68.0 °F - 66.0 °F 93% 29.78 in 7.0 mi Variable 3.5 mph - N/A   Clear
9:54 AM 75.9 °F - 66.0 °F 71% 29.77 in 10.0 mi Variable 4.6 mph - N/A   Partly Cloudy
10:54 AM 79.0 °F - 64.0 °F 60% 29.76 in 10.0 mi WSW 6.9 mph - N/A   Clear
11:54 AM 79.0 °F - 66.0 °F 64% 29.77 in 10.0 mi South 6.9 mph - N/A   Mostly Cloudy
12:54 PM 80.1 °F 82.1 °F 66.0 °F 62% 29.76 in 10.0 mi South 8.1 mph - N/A   Mostly Cloudy
1:54 PM 81.0 °F 82.7 °F 64.9 °F 58% 29.76 in 10.0 mi South 6.9 mph - N/A   Scattered Clouds
2:54 PM 79.0 °F - 68.0 °F 69% 29.77 in 10.0 mi South 9.2 mph - N/A   Clear
3:54 PM 78.1 °F - 66.9 °F 68% 29.79 in 10.0 mi South 9.2 mph - N/A   Clear
4:45 PM 75.2 °F - 68.0 °F 78% 29.87 in 9.0 mi South 6.9 mph - N/A Thunderstorm Mostly Cloudy
4:54 PM 75.0 °F - 66.9 °F 76% 29.82 in 7.0 mi South 20.7 mph 28.8 mph N/A Thunderstorm Overcast
5:01 PM 71.6 °F - 66.2 °F 83% 29.90 in 1.8 mi South 12.7 mph 27.6 mph 0.05 in Rain , Thunderstorm Rain
5:11 PM 71.6 °F - 69.8 °F 94% 29.89 in 2.0 mi SSE 12.7 mph - 0.06 in Rain Light Rain
5:19 PM 71.6 °F - 69.8 °F 94% 29.89 in 5.0 mi South 12.7 mph 19.6 mph 0.06 in Rain Light Rain
5:27 PM 71.6 °F - 68.0 °F 88% 29.89 in 4.0 mi South 12.7 mph - 0.07 in Rain , Thunderstorm Light Rain
5:42 PM 69.8 °F - 66.2 °F 88% 29.89 in 4.0 mi South 16.1 mph 21.9 mph 0.09 in Rain Light Rain
5:54 PM 70.0 °F - 66.9 °F 90% 29.83 in 3.0 mi South 11.5 mph 18.4 mph 0.12 in Rain Light Rain
6:54 PM 69.1 °F - 66.0 °F 90% 29.83 in 9.0 mi Calm Calm - 0.07 in   Mostly Cloudy
7:54 PM 68.0 °F - 66.0 °F 93% 29.83 in 4.0 mi Calm Calm - N/A   Partly Cloudy
8:17 PM 68.0 °F - 66.2 °F 94% 29.89 in 5.0 mi Calm Calm - N/A   Partly Cloudy
8:54 PM 68.0 °F - 66.0 °F 93% 29.84 in 6.0 mi WSW 3.5 mph - 0.00 in Rain Light Rain
9:54 PM 66.9 °F - 66.0 °F 97% 29.86 in 2.5 mi Calm Calm - 0.00 in   Overcast
10:01 PM 68.0 °F - 66.2 °F 94% 29.94 in 2.5 mi Calm Calm - N/A   Overcast
10:08 PM 66.2 °F - 66.2 °F 100% 29.94 in 3.0 mi Calm Calm - N/A   Overcast
10:14 PM 66.2 °F - 66.2 °F 100% 29.94 in 2.5 mi Calm Calm - N/A   Overcast
10:25 PM 66.2 °F - 66.2 °F 100% 29.94 in 4.0 mi ESE 3.5 mph - N/A   Overcast
10:54 PM 68.0 °F - 66.0 °F 93% 29.86 in 5.0 mi Calm Calm - N/A   Overcast
11:12 PM 68.0 °F - 66.2 °F 94% 29.94 in 2.5 mi Calm Calm - N/A   Overcast
11:23 PM 68.0 °F - 66.2 °F 94% 29.94 in 3.0 mi Calm Calm - N/A   Overcast
11:54 PM 68.0 °F - 66.9 °F 96% 29.88 in 5.0 mi Calm Calm - N/A   Overcast